Stations météo

réclame
Mon MeteoGroup
Katterjakk A, Suède (2019): Température de l'air & dewpoint: 14.10.2017 08:00:00 - 20.10.2017 08:00:00 (CEST)Katterjakk A, Suède (2019): Vitesse du vent & gusts: 14.10.2017 08:00:00 - 20.10.2017 08:00:00 (CEST)Katterjakk A, Suède (2019): Direction du vent: 14.10.2017 08:00:00 - 20.10.2017 08:00:00 (CEST)Katterjakk A, Suède (2019): reduced air pressure: 14.10.2017 08:00:00 - 20.10.2017 08:00:00 (CEST)Katterjakk A, Suède (2019): visibility: 14.10.2017 08:00:00 - 20.10.2017 08:00:00 (CEST)Katterjakk A, Suède (2019): Quantités de précipitations: 14.10.2017 08:00:00 - 20.10.2017 08:00:00 (CEST)
Date & Time tt [°C] td [°C] ff [km/h] ff [knt] fx [km/h] fx [knt] dd ppp [hPa] vv [km] rr [mm]
20.10.2017 08:00:00 -6,7 -8,5 3 2 16 9 SSE 1025,1 50 0,0
20.10.2017 07:00:00 -5,1 -6,6 7 4 16 9 SW 1024,4 50 0,0
20.10.2017 06:00:00 -4,4 -6,1 8 4 21 12 SW 1024,2 50 0,0
20.10.2017 05:00:00 -3,1 -4,5 9 5 21 12 SSW 1023,6 50 0,0
20.10.2017 04:00:00 -2,8 -3,9 8 4 11 6 SW 1023,4 50 0,0
20.10.2017 03:00:00 -1,1 -2,2 3 2 11 6 SSW 1022,9 25 0,0
20.10.2017 02:00:00 -0,2 -0,6 0 0 11 6 N 1022,3 7 0,1
20.10.2017 01:00:00 0,0 -0,8 6 3 12 6 NW 1021,9 4,9 0,1
20.10.2017 00:00:00 0,0 -1,3 3 2 12 6 WSW 1021,5 6 0,0
19.10.2017 23:00:00 0,1 -1,0 2 1 18 10 W 1021,2 23 0,1
19.10.2017 22:00:00 0,1 -0,5 4 2 24 13 ENE 1020,8 10 0,0
19.10.2017 21:00:00 0,4 -1,0 14 8 24 13 W 1020,3 50 0,0
19.10.2017 20:00:00 0,5 -0,8 13 7 21 11 W 1019,7 50 0,0
19.10.2017 19:00:00 0,4 0,0 7 4 22 12 WNW 1019,4 19 1,0
19.10.2017 18:00:00 0,4 -0,2 10 6 23 12 WNW 1019,1 1,2 0,8
19.10.2017 17:00:00 0,4 -0,2 5 3 29 16 ENE 1018,9 3,6 0,1
19.10.2017 16:00:00 1,2 -0,3 16 9 29 16 W 1018,5 50 0,0
19.10.2017 15:00:00 0,8 0,1 13 7 32 17 WNW 1018,3 4,3 0,4
19.10.2017 14:00:00 1,0 0,0 20 11 37 20 W 1017,9 4,9 0,2
19.10.2017 13:00:00 0,8 0,1 15 8 37 20 WNW 1017,5 1,4 0,6
19.10.2017 12:00:00 1,0 0,0 21 12 34 18 W 1016,8 6 0,5
19.10.2017 11:00:00 0,5 -0,2 18 10 40 22 W 1016,4 1,6 0,4
19.10.2017 10:00:00 0,5 -0,1 22 12 40 22 W 1016,0 1,9 0,3
19.10.2017 09:00:00 0,7 -0,5 21 12 36 19 W 1015,3 2,6 0,2
19.10.2017 08:00:00 0,5 -0,8 17 9 36 19 W 1015,1 1,7 0,3
19.10.2017 07:00:00 1,2 -1,5 16 9 35 19 WSW 1014,8 15 0,0
19.10.2017 06:00:00 1,1 -0,5 14 7 39 21 W 1014,9 10 0,1
19.10.2017 05:00:00 1,2 -0,7 16 9 39 21 W 1014,6 47 0,0
19.10.2017 04:00:00 1,2 -0,4 24 13 34 19 W 1014,4 12 0,4
19.10.2017 03:00:00 0,7 0,0 21 11 32 18 W 1014,1 2,2 1,2
19.10.2017 02:00:00 1,2 -0,1 8 5 27 15 W 1013,6 9 0,2
19.10.2017 01:00:00 1,1 -0,1 12 6 29 16 W 1013,2 36 0,0
19.10.2017 00:00:00 1,4 -0,1 18 10 36 19 W 1012,6 30 0,0
18.10.2017 23:00:00 1,1 0,2 20 11 36 19 W 1012,0 8 0,0
18.10.2017 22:00:00 1,2 0,5 16 8 30 16 WNW 1011,5 12 0,0
18.10.2017 21:00:00 1,6 0,0 20 11 30 16 W 1010,7 27 0,0
18.10.2017 20:00:00 1,9 0,0 15 8 29 15 WNW 1010,0 50 0,0
18.10.2017 19:00:00 1,6 0,1 16 8 29 15 W 1009,5 50 0,0
18.10.2017 18:00:00 1,1 0,5 5 3 18 10 W 1008,8 5 0,5
18.10.2017 17:00:00 1,9 0,0 9 5 22 12 W 1007,9 50 0,0
18.10.2017 16:00:00 2,1 0,0 13 7 24 13 WNW 1007,2 50 0,0
18.10.2017 15:00:00 2,5 -0,1 12 7 27 14 NW 1006,4 50 0,0
18.10.2017 14:00:00 2,5 -0,6 16 8 27 14 WNW 1005,3 50 0,0
18.10.2017 13:00:00 2,4 0,3 18 10 29 16 WNW 1004,6 50 0,0
18.10.2017 12:00:00 2,2 1,0 13 7 29 16 W 1003,6 40 0,0
18.10.2017 11:00:00 1,8 0,9 7 4 16 8 W 1002,9 15 0,0
18.10.2017 10:00:00 1,5 0,9 5 3 9 5 SSE 1002,1 12 0,2
18.10.2017 09:00:00 1,5 0,6 4 2 9 5 E 1001,4 50 0,0
18.10.2017 08:00:00 1,4 0,4 3 2 14 8 NE 1000,8 50 0,0
18.10.2017 07:00:00 1,1 0,4 4 2 14 8 SSW 1000,3 32 0,0
18.10.2017 06:00:00 1,2 0,5 7 4 15 8 SSW 999,9 3,6 0,0
18.10.2017 05:00:00 0,9 -0,4 8 4 16 8 W 999,6 6 0,0
18.10.2017 04:00:00 0,9 -1,3 8 4 16 8 WSW 999,2 50 0,0
18.10.2017 03:00:00 0,4 -1,8 6 3 12 6 SW 999,0 50 0,0
18.10.2017 02:00:00 0,9 -2,0 6 3 12 6 WSW 998,7 50 0,0
18.10.2017 01:00:00 0,2 -1,9 6 3 13 7 SSW 998,6 50 0,0
18.10.2017 00:00:00 0,7 -1,7 8 4 13 7 WSW 998,3 50 0,0
17.10.2017 23:00:00 0,6 -1,5 6 3 16 8 SSW 998,4 50 0,0
17.10.2017 22:00:00 0,9 -0,9 4 2 17 9 SW 998,5 50 0,0
17.10.2017 21:00:00 -0,2 -1,0 15 8 17 9 S 998,7 50 0,0
17.10.2017 20:00:00 -0,1 -0,5 7 4 10 5 SW 998,7 50 0,0
17.10.2017 19:00:00 -0,2 -0,9 5 3 10 5 SE 998,9 50 0,0
17.10.2017 18:00:00 1,0 0,3 5 3 11 6 S 999,0 50 0,0
17.10.2017 17:00:00 1,9 1,3 2 1 11 6 ESE 999,2 50 0,0
17.10.2017 16:00:00 0,9 0,3 3 1 17 9 S 999,4 50 0,0
17.10.2017 15:00:00 3,3 0,9 10 5 24 13 W 999,2 50 0,0
17.10.2017 14:00:00 3,0 1,2 15 8 26 14 WSW 999,6 50 0,0
17.10.2017 13:00:00 3,1 1,5 11 6 26 14 SW 999,8 37 0,1
17.10.2017 12:00:00 4,0 2,2 9 5 26 14 SW 999,6 50 0,0
17.10.2017 11:00:00 3,7 2,1 13 7 30 16 WSW 999,7 9 0,3
17.10.2017 10:00:00 3,1 1,6 18 10 30 16 WSW 999,8 7 0,9
17.10.2017 09:00:00 3,2 1,7 18 10 29 15 SSW 999,5 44 0,7
17.10.2017 08:00:00 2,8 1,5 15 8 34 18 SW 999,5 6 0,4
17.10.2017 07:00:00 2,6 1,4 19 11 34 18 WSW 999,5 3,2 0,7
17.10.2017 06:00:00 3,0 1,7 23 12 34 18 WSW 999,1 9 0,5
17.10.2017 05:00:00 3,2 1,7 14 8 39 21 W 998,9 8 0,7
17.10.2017 04:00:00 3,2 1,7 21 11 50 27 W 998,7 11 0,3
17.10.2017 03:00:00 3,7 2,1 27 14 50 27 W 998,5 30 0,7
17.10.2017 02:00:00 3,6 2,3 30 16 46 25 W 998,2 14 1,3
17.10.2017 01:00:00 3,7 2,5 28 15 46 25 W 997,5 7 0,3
17.10.2017 00:00:00 3,7 2,1 24 13 40 22 W 996,9 40 0,1
16.10.2017 23:00:00 3,6 1,3 21 11 42 23 W 996,6 50 0,0
16.10.2017 22:00:00 3,3 1,8 30 16 46 25 W 995,9 50 0,1
16.10.2017 21:00:00 3,2 1,7 27 15 52 28 W 995,3 8 1,1
16.10.2017 20:00:00 3,1 2,2 23 12 52 28 W 994,7 2,3 1,0
16.10.2017 19:00:00 3,2 2,2 29 16 52 28 W 994,2 4,0 0,1
16.10.2017 18:00:00 3,4 1,6 35 19 59 32 W 993,6 13 0,1
16.10.2017 17:00:00 3,1 2,1 30 16 60 33 W 993,1 7 0,2
16.10.2017 16:00:00 3,2 1,7 40 21 60 33 W 992,7 6 2,0
16.10.2017 15:00:00 3,1 1,6 35 19 54 29 W 992,1 7 2,2
16.10.2017 14:00:00 2,4 1,2 23 13 41 22 W 991,7 3,8 1,5
16.10.2017 13:00:00 1,8 0,5 23 12 41 22 W 991,3 8 1,1
16.10.2017 12:00:00 1,0 0,0 19 11 32 17 W 990,8 2,5 1,4
16.10.2017 11:00:00 0,4 0,0 5 3 10 5 NNW 989,9 2,0 1,5
16.10.2017 10:00:00 0,1 -0,2 7 4 41 22 NNW 988,9 0,7 2,1
16.10.2017 09:00:00 1,2 0,0 5 3 47 26 NNW 988,2 3,5 0,3
16.10.2017 08:00:00 1,4 0,2 25 14 53 29 E 987,4 10 0,7
16.10.2017 07:00:00 1,6 0,6 31 17 56 30 ENE 989,0 7 1,1
16.10.2017 06:00:00 1,6 0,4 40 21 56 30 E 990,8 4,8 0,2
16.10.2017 05:00:00 1,3 0,4 30 16 46 25 ENE 993,3 18 0,0
16.10.2017 04:00:00 1,2 0,3 32 17 41 22 E 995,9 14 0,0
16.10.2017 03:00:00 -0,1 -0,8 3 1 9 5 N 998,0 50 0,0
16.10.2017 02:00:00 -0,3 -0,7 6 3 9 5 NW 999,9 50 0,0
16.10.2017 01:00:00 -0,3 -0,6 4 2 8 4 E 1001,1 25 0,0
16.10.2017 00:00:00 -0,5 -0,6 3 1 10 5 W 1002,4 0,3 0,0
15.10.2017 23:00:00 -0,3 -0,6 3 2 10 5 E 1003,4 0,5 0,0
15.10.2017 22:00:00 0,1 -0,3 3 1 8 4 NNE 1004,4 50 0,0
15.10.2017 21:00:00 0,4 -0,2 3 1 8 4 WNW 1004,6 50 0,0
15.10.2017 20:00:00 0,8 0,4 3 1 8 5 S 1005,3 50 0,0
15.10.2017 19:00:00 0,0 -0,6 2 1 8 5 SSW 1005,6 50 0,0
15.10.2017 18:00:00 0,8 0,2 5 3 7 4 NNW 1005,6 50 0,0
15.10.2017 17:00:00 0,0 -0,8 0 0 6 3 N 1006,0 50 0,0
15.10.2017 16:00:00 2,3 0,2 2 1 6 3 S 1005,9 44 0,0
15.10.2017 15:00:00 2,6 -0,2 2 1 7 4 WNW 1005,6 49 0,0
15.10.2017 14:00:00 2,4 -0,2 3 1 8 5 ESE 1005,6 48 0,0
15.10.2017 13:00:00 2,2 -0,1 4 2 10 5 SSW 1005,6 50 0,0
15.10.2017 12:00:00 1,9 -0,2 3 1 10 5 ESE 1005,6 50 0,0
15.10.2017 11:00:00 1,1 -0,2 4 2 7 4 SSW 1005,4 50 0,0
15.10.2017 10:00:00 0,8 -0,4 0 0 7 4 N 1005,1 50 0,0
15.10.2017 09:00:00 0,3 -0,3 3 1 8 4 SE 1004,7 50 0,0
15.10.2017 08:00:00 0,1 -0,8 4 2 8 4 E 1004,1 50 0,0
15.10.2017 07:00:00 0,2 -0,8 3 2 8 5 NW 1003,6 50 0,0
15.10.2017 06:00:00 0,1 -0,6 4 2 8 5 SSW 1003,3 50 0,0
15.10.2017 05:00:00 -0,6 -1,3 2 1 8 4 S 1003,0 50 0,0
15.10.2017 04:00:00 0,3 -0,6 5 3 8 4 NNW 1002,7 50 0,0
15.10.2017 03:00:00 0,6 -0,1 0 0 9 5 N 1002,2 50 0,0
15.10.2017 02:00:00 0,7 -0,3 2 1 9 5 S 1002,0 50 0,0
15.10.2017 01:00:00 0,2 -0,5 2 1 9 5 NNW 1001,6 50 0,0
15.10.2017 00:00:00 0,8 -0,1 4 2 9 5 NNW 1001,5 50 0,0
14.10.2017 23:00:00 1,1 0,1 5 3 10 5 NNW 1001,5 50 0,0
14.10.2017 22:00:00 1,1 -0,1 6 4 10 6 N 1001,2 50 0,0
14.10.2017 21:00:00 1,1 -0,1 4 2 11 6 NNW 1001,3 50 0,0
14.10.2017 20:00:00 1,1 -0,2 5 3 16 9 WNW 1001,3 50 0,0
14.10.2017 19:00:00 1,4 -0,1 7 4 18 10 N 1001,2 50 0,0
14.10.2017 18:00:00 1,7 -0,1 7 4 18 10 N 1001,1 50 0,0
14.10.2017 17:00:00 2,3 -0,1 8 4 15 8 NNE 1001,0 47 0,1
14.10.2017 16:00:00 2,6 0,0 6 3 16 9 NNW 1001,0 50 0,0
14.10.2017 15:00:00 2,9 0,0 3 1 16 9 N 1000,7 50 0,0
14.10.2017 14:00:00 3,3 -0,3 7 4 14 8 WNW 1000,7 50 0,0
14.10.2017 13:00:00 2,8 0,4 7 4 18 10 NNW 1000,7 50 0,0
14.10.2017 12:00:00 4,2 0,3 4 2 18 10 N 1000,3 45 0,0
14.10.2017 11:00:00 2,8 0,5 5 3 13 7 N 1000,7 50 0,0
14.10.2017 10:00:00 1,6 0,3 3 2 10 5 SSE 1001,5 50 0,3
14.10.2017 09:00:00 1,2 -0,1 4 2 17 9 NNE 1001,8 11 0,2
14.10.2017 08:00:00 1,2 -0,3 5 3 26 14 NNW 1001,8 19 0,0

tt = Température de l'air
td = dewpoint
ff = Vitesse du vent
fx = gusts
dd = Direction du vent
ppp = reduced air pressure
vv = visibility
rr = Quantités de précipitations

stations d'obs. à proximité